Tracking 20037 objects as of 21-Nov-2019
Live streaming from Space Station
objects crossing your sky now

BNU-1

Track BNU-1 now!
10-day predictions


NORAD ID: 44529
Int'l Code: 2019-059B
Perigee: 738.4 km
Apogee: 759.2 km
Inclination: 98.6 °
Period: 99.6 minutes
Semi major axis: 7119 km
RCS: Unknown
Launch date: September 12, 2019
Source: People's Republic of China (PRC)
Launch site: Taiyaun Space Center, China (TSC)
aabbcc
Your satellite tracking list
Your tracking list is empty




NASA's NSSDC Master Catalog

Two Line Element Set (TLE):
1 44529U 19059B   19324.70530450 -.00000060  00000-0 -43094-5 0  9994
2 44529  98.5709  38.6177 0014640  66.4635 293.8096 14.45118746 10044
Source of the keplerian elements: AFSPC